QPF
0.12 0.11 0.14 0.20 0.11 0.07 0.07 0.06 0.06 0.07 0.07 0.08 0.08 0.08 0.09 0.10 0.09 0.10 0.10 0.09 0.09 0.10 0.12 0.13 0.14 0.14 0.13 0.11 0.11 0.12 0.12 0.13 0.15 0.15 0.13 0.10 0.09 0.09 0.10 0.08 0.07 0.05 0.05
0.16 0.17 0.18 0.19 0.15 0.14 0.11 0.09 0.08 0.09 0.08 0.08 0.09 0.11 0.13 0.13 0.12 0.13 0.13 0.12 0.12 0.14 0.15 0.17 0.17 0.15 0.15 0.12 0.13 0.13 0.14 0.14 0.15 0.14 0.13 0.13 0.11 0.08 0.07 0.07 0.06 0.07 0.06
0.25 0.22 0.20 0.15 0.18 0.23 0.21 0.16 0.12 0.10 0.09 0.09 0.09 0.11 0.14 0.13 0.14 0.14 0.15 0.15 0.14 0.14 0.14 0.13 0.13 0.12 0.12 0.12 0.13 0.13 0.14 0.13 0.13 0.13 0.13 0.13 0.14 0.12 0.09 0.08 0.07 0.07 0.06
0.22 0.23 0.19 0.13 0.09 0.13 0.15 0.16 0.12 0.12 0.12 0.12 0.12 0.15 0.17 0.15 0.15 0.14 0.13 0.13 0.13 0.12 0.13 0.13 0.13 0.12 0.13 0.14 0.13 0.12 0.12 0.12 0.12 0.11 0.10 0.11 0.11 0.12 0.11 0.10 0.09 0.08 0.06
0.20 0.24 0.16 0.10 0.06 0.08 0.10 0.12 0.14 0.13 0.12 0.13 0.15 0.18 0.19 0.21 0.18 0.15 0.14 0.15 0.14 0.13 0.13 0.12 0.13 0.15 0.15 0.15 0.16 0.15 0.13 0.12 0.13 0.12 0.12 0.12 0.12 0.11 0.12 0.11 0.08 0.06 0.05
0.14 0.16 0.12 0.06 0.04 0.07 0.08 0.10 0.10 0.12 0.14 0.13 0.17 0.20 0.20 0.20 0.20 0.19 0.19 0.18 0.16 0.17 0.17 0.18 0.19 0.18 0.16 0.14 0.12 0.10 0.10 0.11 0.12 0.12 0.13 0.13 0.12 0.11 0.11 0.10 0.07 0.06 0.05
0.04 0.08 0.07 0.03 0.03 0.05 0.07 0.08 0.08 0.09 0.12 0.11 0.14 0.19 0.21 0.21 0.24 0.25 0.23 0.18 0.17 0.16 0.16 0.15 0.13 0.13 0.13 0.10 0.08 0.06 0.05 0.06 0.07 0.08 0.09 0.08 0.08 0.08 0.08 0.08 0.07 0.06 0.04
0.02 0.02 0.02 0.02 0.03 0.04 0.04 0.04 0.04 0.05 0.06 0.06 0.08 0.11 0.13 0.16 0.20 0.20 0.18 0.16 0.16 0.14 0.12 0.10 0.08 0.07 0.07 0.06 0.06 0.05 0.05 0.06 0.07 0.07 0.08 0.08 0.07 0.06 0.06 0.06 0.06 0.05 0.04
0.01 0.02 0.02 0.01 0.01 0.02 0.02 0.03 0.04 0.05 0.07 0.08 0.08 0.08 0.09 0.11 0.13 0.13 0.12 0.13 0.13 0.11 0.10 0.09 0.08 0.07 0.06 0.06 0.06 0.07 0.07 0.08 0.08 0.08 0.08 0.08 0.07 0.05 0.04 0.03 0.03 0.03 0.04
0.02 0.02 0.02 0.01 0.01 0.02 0.02 0.04 0.05 0.05 0.05 0.05 0.05 0.04 0.05 0.06 0.08 0.09 0.09 0.10 0.11 0.10 0.09 0.08 0.07 0.07 0.07 0.08 0.08 0.09 0.09 0.09 0.08 0.07 0.06 0.05 0.04 0.04 0.03 0.03 0.03 0.03 0.03
0.01 0.01 0.01 0.01 0.01 0.01 0.02 0.03 0.03 0.03 0.02 0.02 0.02 0.03 0.03 0.03 0.04 0.04 0.05 0.05 0.05 0.05 0.06 0.07 0.07 0.07 0.08 0.08 0.08 0.08 0.07 0.06 0.05 0.04 0.03 0.02 0.02 0.02 0.01 0.01 0.02 0.02 0.02
0.01 0.01 0.01 0.01 0.01 0.01 0.02 0.02 0.02 0.03 0.03 0.02 0.01 0.02 0.02 0.02 0.02 0.02 0.03 0.03 0.04 0.04 0.05 0.05 0.05 0.05 0.05 0.05 0.05 0.05 0.04 0.04 0.03 0.02 0.02 0.01 0.01 0.01 0.01 0.01 0.01 0.02 0.02
0.02 0.02 0.02 0.01 0.01 0.01 0.02 0.02 0.02 0.03 0.03 0.02 0.02 0.02 0.02 0.02 0.02 0.02 0.02 0.03 0.03 0.03 0.03 0.03 0.03 0.03 0.03 0.03 0.03 0.03 0.02 0.02 0.02 0.01 0.01 0.01 0.01 0.01 0.01 0.02 0.02 0.02 0.01
0.03 0.02 0.02 0.02 0.01 0.01 0.02 0.02 0.03 0.03 0.03 0.03 0.02 0.02 0.02 0.02 0.02 0.02 0.02 0.02 0.01 0.01 0.01 0.01 0.01 0.01 0.01 0.01 0.01 0.01 0.01 0.01 0.01 0.01 0.01 0.01 0.01 0.01 0.01 0.01 0.01 0.01 0.02
0.04 0.03 0.03 0.02 0.02 0.02 0.02 0.02 0.03 0.03 0.02 0.01 0.01 0.01 0.01 0.01 0.01 0.01 0.02 0.01 0.01 0.01 0.01 0.01 0.01 0.01 0.00 0.00 0.01 0.01 0.01 0.01 0.01 0.01 0.01 0.01 0.00 0.00 0.00 0.00 0.00 0.01 0.01
0.10 0.08 0.07 0.06 0.04 0.02 0.02 0.02 0.02 0.02 0.02 0.01 0.01 0.01 0.02 0.02 0.01 0.01 0.01 0.01 0.01 0.01 0.01 0.01 0.01 0.01 0.00 0.00 0.00 0.00 0.00 0.01 0.01 0.01 0.02 0.01 0.01 0.00 0.00 0.00 0.00 0.00 0.00
0.20 0.18 0.14 0.11 0.07 0.05 0.03 0.02 0.02 0.02 0.02 0.02 0.01 0.01 0.01 0.01 0.01 0.01 0.01 0.01 0.02 0.02 0.02 0.02 0.02 0.01 0.00 0.00 0.00 0.00 0.00 0.01 0.01 0.01 0.02 0.02 0.01 0.01 0.02 0.01 0.01 0.02 0.01
0.19 0.19 0.16 0.13 0.09 0.06 0.05 0.03 0.02 0.02 0.02 0.02 0.02 0.02 0.01 0.01 0.01 0.01 0.02 0.02 0.02 0.02 0.02 0.02 0.02 0.01 0.00 0.00 0.00 0.00 0.00 0.01 0.01 0.01 0.02 0.03 0.03 0.01 0.00 0.00 0.02 0.05 0.05
0.16 0.18 0.15 0.12 0.08 0.05 0.04 0.03 0.03 0.02 0.02 0.03 0.03 0.03 0.03 0.03 0.03 0.03 0.03 0.03 0.03 0.02 0.02 0.01 0.02 0.02 0.01 0.00 0.00 0.00 0.01 0.02 0.02 0.02 0.02 0.01 0.02 0.00 0.00 0.01 0.03 0.05 0.06
0.15 0.15 0.14 0.12 0.09 0.07 0.05 0.04 0.05 0.05 0.04 0.03 0.03 0.03 0.03 0.03 0.03 0.03 0.03 0.02 0.02 0.02 0.01 0.01 0.02 0.02 0.01 0.00 0.00 0.00 0.00 0.01 0.03 0.05 0.05 0.02 0.00 0.00 0.00 0.01 0.03 0.04 0.03
0.11 0.11 0.10 0.10 0.09 0.08 0.07 0.07 0.06 0.05 0.04 0.03 0.03 0.03 0.02 0.02 0.02 0.03 0.02 0.03 0.03 0.02 0.02 0.01 0.02 0.02 0.00 0.00 0.00 0.00 0.00 0.00 0.02 0.06 0.07 0.04 0.00 0.00 0.00 0.00 0.01 0.01 0.00
0.10 0.10 0.10 0.09 0.09 0.09 0.09 0.10 0.08 0.05 0.03 0.02 0.02 0.02 0.02 0.01 0.01 0.03 0.02 0.03 0.03 0.03 0.02 0.02 0.02 0.02 0.02 0.00 0.00 0.00 0.00 0.00 0.02 0.06 0.04 0.02 0.00 0.00 0.00 0.00 0.00 0.00 0.01
0.11 0.11 0.09 0.09 0.08 0.07 0.07 0.07 0.05 0.03 0.02 0.02 0.02 0.02 0.02 0.01 0.01 0.02 0.02 0.02 0.02 0.01 0.01 0.02 0.03 0.03 0.04 0.02 0.00 0.00 0.00 0.00 0.01 0.03 0.01 0.00 0.00 0.00 0.02 0.01 0.00 0.01 0.05
0.08 0.08 0.07 0.06 0.05 0.03 0.03 0.03 0.02 0.01 0.02 0.02 0.02 0.03 0.03 0.03 0.01 0.01 0.01 0.01 0.01 0.01 0.01 0.02 0.03 0.03 0.03 0.02 0.00 0.01 0.02 0.01 0.01 0.02 0.02 0.02 0.01 0.01 0.02 0.03 0.05 0.06 0.06
0.05 0.04 0.04 0.03 0.02 0.01 0.01 0.01 0.01 0.01 0.02 0.03 0.02 0.02 0.03 0.02 0.02 0.02 0.01 0.00 0.00 0.00 0.00 0.01 0.01 0.01 0.01 0.00 0.00 0.00 0.00 0.00 0.00 0.01 0.04 0.07 0.07 0.06 0.06 0.06 0.06 0.07 0.06
0.03 0.02 0.02 0.02 0.01 0.01 0.00 0.00 0.00 0.01 0.03 0.03 0.02 0.01 0.01 0.01 0.01 0.03 0.02 0.00 0.00 0.00 0.00 0.00 0.00 0.00 0.00 0.00 0.00 0.00 0.00 0.00 0.00 0.01 0.06 0.07 0.05 0.04 0.03 0.04 0.04 0.05 0.05
MSLP
1007.51 1007.53 1007.51 1007.48 1007.49 1007.58 1007.79 1008.13 1008.62 1009.22 1009.89 1010.59 1011.27 1011.92 1012.51 1013.06 1013.58 1014.08 1014.59 1015.11 1015.64 1016.17 1016.68 1017.15 1017.55 1017.88 1018.13 1018.31 1018.41 1018.44 1018.42 1018.34 1018.22 1018.07 1017.89 1017.70 1017.51 1017.36 1017.25 1017.20 1017.20 1017.26 1017.36
1009.59 1009.64 1009.56 1009.40 1009.20 1009.04 1008.97 1009.04 1009.28 1009.68 1010.20 1010.82 1011.48 1012.15 1012.80 1013.42 1014.01 1014.58 1015.15 1015.71 1016.27 1016.82 1017.34 1017.81 1018.20 1018.50 1018.72 1018.84 1018.89 1018.88 1018.82 1018.72 1018.61 1018.48 1018.34 1018.20 1018.07 1017.95 1017.86 1017.80 1017.78 1017.80 1017.85
1011.65 1011.73 1011.63 1011.36 1011.00 1010.62 1010.30 1010.12 1010.12 1010.32 1010.70 1011.23 1011.87 1012.55 1013.25 1013.94 1014.60 1015.25 1015.87 1016.47 1017.06 1017.62 1018.13 1018.57 1018.93 1019.19 1019.35 1019.43 1019.42 1019.37 1019.28 1019.17 1019.07 1018.96 1018.87 1018.78 1018.69 1018.61 1018.53 1018.47 1018.42 1018.39 1018.39
1013.45 1013.59 1013.49 1013.17 1012.70 1012.17 1011.67 1011.30 1011.11 1011.15 1011.42 1011.87 1012.47 1013.17 1013.90 1014.65 1015.38 1016.07 1016.74 1017.37 1017.96 1018.50 1018.99 1019.39 1019.70 1019.90 1020.01 1020.03 1019.98 1019.89 1019.79 1019.68 1019.60 1019.53 1019.48 1019.43 1019.37 1019.31 1019.23 1019.14 1019.04 1018.96 1018.91
1014.88 1015.09 1015.03 1014.72 1014.22 1013.62 1013.02 1012.53 1012.24 1012.17 1012.35 1012.75 1013.32 1014.02 1014.78 1015.55 1016.31 1017.04 1017.71 1018.34 1018.91 1019.41 1019.84 1020.19 1020.43 1020.58 1020.64 1020.61 1020.54 1020.43 1020.33 1020.24 1020.18 1020.14 1020.12 1020.10 1020.06 1019.99 1019.89 1019.76 1019.61 1019.47 1019.35
1015.92 1016.22 1016.23 1015.98 1015.52 1014.93 1014.33 1013.82 1013.48 1013.37 1013.51 1013.87 1014.42 1015.10 1015.85 1016.62 1017.37 1018.08 1018.73 1019.31 1019.83 1020.27 1020.64 1020.91 1021.09 1021.18 1021.19 1021.14 1021.05 1020.95 1020.85 1020.79 1020.76 1020.75 1020.75 1020.74 1020.70 1020.61 1020.46 1020.28 1020.07 1019.86 1019.68
1016.63 1017.02 1017.14 1017.00 1016.64 1016.15 1015.62 1015.16 1014.85 1014.74 1014.86 1015.19 1015.71 1016.35 1017.06 1017.79 1018.49 1019.14 1019.72 1020.23 1020.66 1021.02 1021.30 1021.50 1021.62 1021.66 1021.64 1021.58 1021.49 1021.40 1021.33 1021.29 1021.28 1021.29 1021.30 1021.29 1021.23 1021.11 1020.92 1020.68 1020.41 1020.14 1019.89
1017.15 1017.64 1017.88 1017.87 1017.66 1017.31 1016.91 1016.54 1016.30 1016.22 1016.34 1016.65 1017.12 1017.69 1018.33 1018.97 1019.58 1020.13 1020.62 1021.03 1021.36 1021.63 1021.83 1021.95 1022.02 1022.03 1021.99 1021.92 1021.84 1021.78 1021.73 1021.71 1021.72 1021.74 1021.75 1021.72 1021.63 1021.48 1021.25 1020.97 1020.65 1020.32 1020.02
1017.60 1018.18 1018.54 1018.68 1018.63 1018.44 1018.18 1017.93 1017.77 1017.74 1017.86 1018.14 1018.54 1019.02 1019.55 1020.07 1020.56 1020.99 1021.36 1021.67 1021.90 1022.08 1022.21 1022.28 1022.31 1022.30 1022.26 1022.20 1022.14 1022.09 1022.06 1022.06 1022.07 1022.08 1022.07 1022.03 1021.92 1021.74 1021.48 1021.17 1020.82 1020.46 1020.13
1018.09 1018.74 1019.20 1019.47 1019.57 1019.53 1019.41 1019.28 1019.20 1019.20 1019.31 1019.54 1019.85 1020.22 1020.62 1021.01 1021.37 1021.69 1021.94 1022.15 1022.31 1022.43 1022.51 1022.55 1022.57 1022.56 1022.52 1022.48 1022.43 1022.39 1022.36 1022.35 1022.35 1022.34 1022.31 1022.24 1022.11 1021.92 1021.66 1021.34 1020.99 1020.63 1020.29
1018.64 1019.34 1019.88 1020.25 1020.45 1020.53 1020.53 1020.49 1020.46 1020.48 1020.57 1020.73 1020.95 1021.21 1021.48 1021.75 1021.99 1022.20 1022.37 1022.51 1022.62 1022.71 1022.78 1022.83 1022.85 1022.86 1022.84 1022.81 1022.77 1022.72 1022.68 1022.65 1022.62 1022.58 1022.52 1022.42 1022.28 1022.09 1021.83 1021.54 1021.21 1020.87 1020.54
1019.25 1019.96 1020.53 1020.95 1021.23 1021.39 1021.46 1021.48 1021.48 1021.51 1021.56 1021.66 1021.79 1021.95 1022.11 1022.27 1022.42 1022.56 1022.68 1022.80 1022.90 1023.00 1023.09 1023.17 1023.22 1023.25 1023.26 1023.24 1023.20 1023.14 1023.07 1022.99 1022.92 1022.83 1022.74 1022.62 1022.47 1022.28 1022.05 1021.80 1021.51 1021.21 1020.91
1019.84 1020.54 1021.10 1021.53 1021.84 1022.03 1022.14 1022.20 1022.22 1022.24 1022.26 1022.31 1022.37 1022.44 1022.53 1022.62 1022.72 1022.82 1022.94 1023.06 1023.19 1023.33 1023.47 1023.59 1023.69 1023.76 1023.79 1023.77 1023.72 1023.63 1023.52 1023.40 1023.27 1023.13 1022.99 1022.85 1022.69 1022.52 1022.33 1022.11 1021.87 1021.61 1021.34
1020.37 1021.01 1021.54 1021.95 1022.25 1022.45 1022.57 1022.64 1022.67 1022.68 1022.69 1022.70 1022.72 1022.76 1022.80 1022.86 1022.94 1023.05 1023.18 1023.34 1023.52 1023.72 1023.91 1024.09 1024.24 1024.34 1024.38 1024.36 1024.29 1024.17 1024.02 1023.84 1023.65 1023.47 1023.29 1023.12 1022.95 1022.79 1022.62 1022.44 1022.24 1022.02 1021.78
1020.80 1021.36 1021.83 1022.19 1022.46 1022.65 1022.78 1022.86 1022.90 1022.92 1022.93 1022.94 1022.95 1022.97 1023.01 1023.07 1023.16 1023.29 1023.46 1023.66 1023.89 1024.14 1024.39 1024.61 1024.79 1024.91 1024.96 1024.94 1024.85 1024.70 1024.50 1024.27 1024.03 1023.80 1023.59 1023.39 1023.22 1023.05 1022.90 1022.74 1022.57 1022.37 1022.14
1021.12 1021.61 1022.00 1022.30 1022.53 1022.71 1022.83 1022.93 1022.99 1023.04 1023.07 1023.10 1023.13 1023.17 1023.22 1023.30 1023.42 1023.57 1023.77 1024.01 1024.28 1024.56 1024.83 1025.08 1025.28 1025.41 1025.45 1025.42 1025.31 1025.13 1024.90 1024.64 1024.36 1024.10 1023.85 1023.64 1023.44 1023.27 1023.11 1022.95 1022.78 1022.59 1022.36
1021.40 1021.80 1022.11 1022.36 1022.55 1022.71 1022.84 1022.96 1023.06 1023.15 1023.22 1023.29 1023.36 1023.42 1023.51 1023.61 1023.74 1023.91 1024.12 1024.37 1024.64 1024.93 1025.20 1025.45 1025.64 1025.76 1025.79 1025.75 1025.62 1025.43 1025.18 1024.90 1024.60 1024.32 1024.05 1023.81 1023.60 1023.41 1023.23 1023.05 1022.86 1022.64 1022.39
1021.69 1022.01 1022.26 1022.45 1022.61 1022.76 1022.90 1023.04 1023.18 1023.32 1023.44 1023.56 1023.67 1023.77 1023.88 1023.99 1024.13 1024.30 1024.49 1024.72 1024.97 1025.22 1025.47 1025.68 1025.84 1025.94 1025.97 1025.91 1025.78 1025.58 1025.33 1025.04 1024.75 1024.46 1024.18 1023.92 1023.68 1023.46 1023.25 1023.03 1022.80 1022.54 1022.25
1022.04 1022.30 1022.49 1022.64 1022.78 1022.92 1023.07 1023.23 1023.41 1023.59 1023.76 1023.92 1024.07 1024.20 1024.32 1024.43 1024.56 1024.70 1024.86 1025.04 1025.24 1025.44 1025.64 1025.81 1025.93 1026.00 1026.01 1025.94 1025.81 1025.62 1025.38 1025.11 1024.82 1024.53 1024.24 1023.96 1023.70 1023.44 1023.18 1022.91 1022.63 1022.32 1021.98
1022.49 1022.69 1022.83 1022.94 1023.05 1023.18 1023.34 1023.52 1023.73 1023.94 1024.15 1024.34 1024.51 1024.65 1024.77 1024.88 1024.98 1025.08 1025.19 1025.32 1025.46 1025.61 1025.75 1025.87 1025.96 1026.01 1026.00 1025.93 1025.81 1025.63 1025.40 1025.15 1024.87 1024.57 1024.27 1023.97 1023.67 1023.37 1023.06 1022.74 1022.40 1022.03 1021.64
1022.99 1023.15 1023.25 1023.33 1023.42 1023.53 1023.68 1023.87 1024.09 1024.32 1024.54 1024.75 1024.93 1025.07 1025.19 1025.28 1025.35 1025.42 1025.49 1025.57 1025.67 1025.76 1025.86 1025.95 1026.01 1026.04 1026.02 1025.95 1025.83 1025.66 1025.45 1025.20 1024.92 1024.61 1024.29 1023.96 1023.62 1023.27 1022.91 1022.53 1022.14 1021.72 1021.29
1023.50 1023.62 1023.69 1023.74 1023.80 1023.90 1024.03 1024.21 1024.42 1024.65 1024.87 1025.08 1025.26 1025.40 1025.51 1025.59 1025.65 1025.70 1025.75 1025.80 1025.87 1025.94 1026.01 1026.08 1026.13 1026.15 1026.13 1026.06 1025.94 1025.77 1025.55 1025.29 1024.99 1024.66 1024.31 1023.94 1023.56 1023.16 1022.75 1022.32 1021.88 1021.43 1020.97
1023.94 1024.03 1024.07 1024.09 1024.13 1024.20 1024.32 1024.48 1024.67 1024.89 1025.10 1025.30 1025.47 1025.61 1025.72 1025.80 1025.86 1025.91 1025.96 1026.01 1026.08 1026.16 1026.23 1026.30 1026.35 1026.36 1026.33 1026.25 1026.12 1025.93 1025.69 1025.39 1025.06 1024.69 1024.30 1023.88 1023.45 1023.01 1022.56 1022.10 1021.64 1021.16 1020.69
1024.24 1024.31 1024.33 1024.33 1024.35 1024.40 1024.50 1024.64 1024.81 1025.00 1025.20 1025.39 1025.56 1025.70 1025.81 1025.90 1025.98 1026.05 1026.13 1026.22 1026.31 1026.41 1026.50 1026.58 1026.63 1026.64 1026.60 1026.50 1026.34 1026.11 1025.82 1025.48 1025.09 1024.67 1024.22 1023.76 1023.29 1022.82 1022.35 1021.87 1021.40 1020.93 1020.45
1024.37 1024.43 1024.44 1024.43 1024.44 1024.48 1024.56 1024.68 1024.84 1025.01 1025.19 1025.37 1025.53 1025.68 1025.81 1025.92 1026.03 1026.15 1026.27 1026.39 1026.53 1026.66 1026.78 1026.88 1026.93 1026.93 1026.86 1026.72 1026.51 1026.23 1025.88 1025.48 1025.03 1024.56 1024.07 1023.57 1023.08 1022.59 1022.12 1021.65 1021.19 1020.73 1020.27
1024.33 1024.38 1024.40 1024.40 1024.41 1024.46 1024.53 1024.65 1024.79 1024.95 1025.12 1025.29 1025.45 1025.60 1025.75 1025.89 1026.04 1026.19 1026.36 1026.53 1026.71 1026.87 1027.01 1027.12 1027.16 1027.13 1027.03 1026.84 1026.58 1026.23 1025.82 1025.36 1024.87 1024.35 1023.84 1023.33 1022.83 1022.36 1021.90 1021.46 1021.03 1020.60 1020.17
Thickness
5758 5759 5761 5762 5764 5765 5762 5760 5759 5758 5758 5755 5753 5750 5747 5746 5744 5741 5738 5734 5731 5728 5726 5722 5720 5717 5714 5712 5710 5706 5703 5700 5698 5694 5693 5695 5695 5694 5691 5689 5687 5684 5681
5747 5746 5747 5751 5752 5750 5749 5749 5749 5750 5750 5749 5748 5746 5744 5740 5736 5733 5730 5727 5723 5720 5718 5714 5711 5709 5706 5703 5701 5698 5695 5693 5690 5685 5682 5680 5682 5683 5683 5680 5676 5673 5671
5729 5732 5733 5734 5737 5736 5736 5737 5738 5740 5742 5743 5742 5740 5736 5732 5726 5723 5719 5717 5714 5711 5707 5705 5701 5699 5697 5694 5691 5688 5686 5683 5682 5680 5674 5670 5668 5669 5670 5667 5665 5662 5659
5719 5719 5721 5722 5722 5724 5725 5726 5727 5730 5732 5734 5733 5729 5725 5719 5715 5712 5708 5705 5702 5699 5696 5693 5690 5687 5686 5684 5682 5680 5678 5675 5672 5670 5667 5664 5661 5657 5655 5654 5652 5650 5647
5709 5707 5708 5710 5710 5712 5714 5715 5716 5718 5720 5722 5723 5720 5715 5709 5704 5700 5695 5691 5687 5685 5682 5680 5678 5676 5674 5671 5670 5667 5666 5664 5660 5656 5654 5653 5650 5648 5643 5640 5638 5637 5635
5696 5695 5696 5699 5699 5700 5701 5703 5703 5704 5706 5707 5708 5705 5701 5696 5692 5687 5682 5677 5674 5672 5669 5667 5665 5664 5661 5658 5656 5654 5652 5650 5646 5643 5640 5637 5635 5632 5630 5627 5625 5623 5621
5686 5684 5684 5685 5686 5687 5687 5687 5688 5687 5689 5691 5690 5689 5686 5682 5678 5673 5668 5665 5661 5658 5654 5652 5651 5650 5647 5645 5643 5641 5638 5635 5632 5629 5626 5624 5621 5619 5617 5614 5611 5609 5607
5675 5673 5672 5671 5671 5672 5672 5672 5672 5671 5673 5674 5672 5671 5669 5667 5662 5657 5654 5651 5647 5642 5639 5638 5637 5635 5633 5631 5629 5626 5623 5620 5617 5614 5611 5609 5607 5605 5602 5599 5596 5594 5592
5663 5661 5659 5658 5657 5657 5657 5657 5656 5656 5656 5656 5656 5653 5651 5649 5645 5641 5639 5635 5631 5628 5625 5624 5622 5620 5618 5616 5614 5611 5607 5605 5602 5599 5596 5593 5591 5589 5587 5585 5582 5578 5574
5650 5648 5646 5644 5643 5642 5641 5641 5641 5640 5639 5639 5639 5636 5633 5631 5628 5625 5622 5618 5615 5612 5610 5609 5608 5605 5603 5600 5598 5595 5593 5590 5587 5585 5582 5578 5576 5574 5572 5569 5567 5564 5560
5638 5635 5633 5631 5630 5628 5627 5626 5625 5624 5623 5622 5620 5618 5616 5613 5611 5609 5605 5603 5600 5598 5597 5595 5593 5590 5588 5586 5584 5582 5579 5576 5573 5569 5567 5564 5562 5559 5557 5554 5551 5548 5544
5626 5623 5620 5618 5616 5615 5613 5612 5611 5610 5608 5605 5603 5601 5599 5597 5595 5592 5590 5588 5586 5584 5583 5580 5578 5576 5574 5572 5570 5568 5565 5562 5558 5554 5552 5549 5548 5544 5541 5538 5535 5532 5529
5615 5611 5608 5605 5603 5601 5599 5598 5596 5595 5593 5591 5588 5586 5584 5582 5580 5578 5576 5574 5573 5571 5569 5566 5564 5562 5559 5557 5555 5553 5550 5547 5544 5541 5538 5535 5533 5529 5526 5523 5520 5517 5514
5604 5599 5595 5592 5590 5588 5586 5584 5583 5581 5579 5577 5575 5572 5570 5568 5566 5565 5563 5562 5560 5558 5556 5553 5550 5547 5544 5541 5539 5538 5536 5534 5531 5528 5526 5522 5518 5514 5511 5509 5505 5502 5499
5592 5587 5583 5580 5577 5575 5573 5571 5570 5568 5567 5565 5562 5559 5557 5556 5554 5553 5551 5549 5548 5546 5543 5540 5537 5534 5529 5524 5522 5522 5523 5521 5519 5517 5514 5511 5506 5501 5498 5495 5491 5489 5487
5581 5577 5572 5568 5566 5563 5562 5560 5558 5556 5555 5552 5550 5548 5546 5544 5542 5541 5539 5537 5536 5533 5531 5528 5525 5521 5515 5510 5509 5508 5508 5509 5508 5506 5503 5500 5496 5492 5489 5485 5482 5480 5478
5572 5567 5562 5557 5554 5553 5551 5549 5547 5546 5543 5541 5539 5537 5535 5533 5532 5531 5528 5526 5524 5522 5519 5517 5512 5507 5501 5499 5498 5497 5497 5498 5497 5495 5493 5490 5487 5483 5479 5478 5477 5475 5473
5560 5555 5550 5546 5544 5542 5540 5539 5537 5535 5533 5530 5529 5527 5525 5523 5521 5519 5517 5516 5514 5511 5509 5506 5502 5497 5492 5490 5489 5488 5490 5491 5489 5487 5485 5482 5478 5474 5470 5470 5470 5470 5469
5548 5544 5540 5536 5534 5532 5531 5529 5527 5526 5524 5522 5520 5518 5516 5514 5512 5510 5508 5506 5504 5502 5500 5496 5493 5489 5483 5481 5480 5479 5482 5483 5482 5480 5477 5474 5471 5465 5463 5463 5464 5464 5463
5538 5534 5531 5528 5525 5524 5523 5521 5518 5517 5515 5513 5511 5509 5507 5506 5504 5501 5500 5498 5496 5494 5492 5488 5485 5481 5477 5473 5472 5471 5475 5475 5474 5473 5471 5466 5463 5460 5458 5457 5457 5457 5456
5530 5527 5524 5521 5518 5517 5515 5513 5510 5508 5507 5505 5503 5502 5500 5498 5496 5494 5492 5490 5489 5486 5484 5482 5478 5475 5471 5468 5466 5465 5465 5465 5465 5466 5465 5462 5458 5456 5455 5453 5452 5452 5450
5523 5520 5517 5514 5512 5510 5508 5506 5503 5501 5500 5498 5496 5495 5493 5493 5490 5487 5485 5484 5482 5480 5478 5475 5473 5470 5466 5464 5462 5461 5459 5457 5458 5459 5459 5457 5455 5454 5453 5453 5453 5452 5450
5517 5514 5512 5509 5506 5504 5502 5499 5497 5496 5494 5492 5490 5489 5488 5485 5484 5482 5480 5478 5477 5475 5473 5470 5467 5464 5462 5460 5457 5456 5456 5455 5454 5454 5454 5454 5454 5454 5454 5455 5453 5452 5452
5513 5510 5507 5504 5501 5499 5497 5494 5492 5490 5488 5486 5485 5484 5482 5480 5477 5475 5473 5472 5469 5467 5466 5463 5460 5459 5458 5454 5451 5450 5452 5452 5452 5450 5452 5454 5456 5455 5454 5454 5454 5454 5454
5510 5507 5504 5501 5498 5495 5492 5490 5488 5486 5483 5482 5480 5479 5478 5476 5472 5468 5463 5462 5457 5455 5454 5454 5454 5452 5452 5445 5442 5442 5444 5444 5444 5444 5449 5453 5455 5456 5456 5455 5455 5455 5455
5508 5505 5502 5498 5495 5492 5489 5487 5485 5483 5480 5479 5478 5477 5476 5473 5470 5465 5460 5454 5452 5449 5448 5446 5444 5445 5443 5442 5442 5442 5443 5444 5443 5444 5449 5452 5453 5454 5453 5453 5453 5454 5454